Terug naar catalogus

STARLINK-35645

ActiefCommunicatieVLEO
NORAD 66124·PAYLOAD·🇺🇸 United States

Gelanceerd Oct 22, 2025 vanaf Vandenberg Space Force Base

Loading…

Volgende Passages (komende 24 uur)

TLE

VersSource: CelesTrak SupGP

Epoch: Sep 15, 2026, 02:54 UTC

1 66124C 25237L   26258.12131944 -.00057125  00000+0 -16876-2 0  2585
2 66124  53.1574 236.7217 0001334  91.0953 347.2021 15.34421689    15

Volg STARLINK-35645 in realtime met AllMySat

Download on the App Store